Regional Weather Roundup
Issued by NWS

Home | Current Version | Previous Version | Text Only | Print | Product List | Glossary Off
Versions: 1 2 3 4 5 6 7 8 9 10 11 12 13 14 15 16 17 18 19 20 21 22 23 24 25 26 27 28 29 30 31 32 33 34 35 36 37 38 39 40 41 42 43 44 45 46 47 48 49 50

000
ASUS45 KTFX 051810
RWRMT
MONTANA REGIONAL WEATHER ROUNDUP
NATIONAL WEATHER SERVICE GREAT FALLS MT
1200 PM MDT SUN JUL 05 2015

NOTE: "FAIR" INDICATES FEW OR NO CLOUDS BELOW 12000 FEET WITH NO
SIGNIFICANT WEATHER AND/OR OBSTRUCTIONS TO VISIBILITY.

MTZ001>007-043-051900-
WEST OF THE DIVIDE

CITY           SKY/WX    TMP DP  RH WIND       PRES   REMARKS
KALISPELL      CLOUDY    63  43  48 NE18G31   30.08S
MISSOULA       SUNNY     74  45  35 E20G29    30.00F
BUTTE          CLOUDY    60  47  61 N6        30.13S
MULLAN PASS    MOSUNNY   63  47  55 CALM      30.10R
DEER LODGE       N/A     61  46  59 N9G17     30.14F
EUREKA           N/A     66  43  42 SE9       30.11S
HAMILTON         N/A     73  50  43 NE5       29.97F
LIBBY            N/A     66  45  45 N8        30.07S
PLAINS           N/A     68  53  58 N8        30.02R
RONAN            N/A     65  54  67 N8        30.08R
$$

MTZ008-052>055-051900-
SOUTHWEST MONTANA

CITY           SKY/WX    TMP DP  RH WIND       PRES   REMARKS
BOZEMAN        CLOUDY    63  53  70 NW12      30.09S
DILLON         PTSUNNY   69  50  50 NE16      30.06F
W YELLOWSTONE  CLOUDY    64  50  59 S6        30.15R
THREE FORKS      N/A     62  59  90 N7        30.09S
TWIN BRIDGES     N/A     69  48  46 N17       30.05S
$$

MTZ009-010-012-014-046-048-049-054-051900-
EAST SLOPES AND CENTRAL MONTANA

CITY           SKY/WX    TMP DP  RH WIND       PRES   REMARKS
CUT BANK       CLOUDY    50  47  89 NW6       30.20F
GREAT FALLS    LGT RAIN  51  50  96 N13       30.17S FOG
MALMSTROM AFB  CLOUDY    52  52 100 N10       30.19R FOG
HELENA         CLOUDY    59  47  64 NW12      30.15R
CONRAD           N/A     51  51 100 NW2       30.20S
$$

MTZ011-013-016-021-045-047-050-051-051900-
NORTH CENTRAL MONTANA

CITY           SKY/WX    TMP DP  RH WIND       PRES   REMARKS
HAVRE          LGT RAIN  56  54  93 MISG      30.15S FOG
LEWISTOWN      CLOUDY    56  51  84 CALM      30.15S HAZE
FORT BENTON      N/A     55  48  76 N9        30.18R
$$

MTZ017>020-022>027-061-062-051900-
NORTHEAST MONTANA

CITY           SKY/WX    TMP DP  RH WIND       PRES   REMARKS
GLASGOW        CLOUDY    68  47  46 N18G26    30.04R
JORDAN           N/A     68  49  50 N20       30.06R
SIDNEY         SUNNY     73  54  49 NW16      29.97R
WOLF POINT     PTSUNNY   75  49  39 N20G29    30.00R
PLENTYWOOD       N/A     70  45  40 N14G28    29.98R
POPLAR           N/A     72  52  49 N13G23    29.99R
SCOBEY           N/A     65  48  53 NW13      30.02R
$$

MTZ028>42-056>058-051900-
SOUTHCENTRAL AND SOUTHEAST MONTANA

CITY           SKY/WX    TMP DP  RH WIND       PRES   REMARKS
BAKER          PTSUNNY   71  57  61 N24G30    29.97R
BILLINGS       CLOUDY    60  50  69 NE13      30.13R
LIVINGSTON     CLOUDY    61  50  67 E18G26    30.11F HAZE
MILES CITY     CLOUDY    66  51  58 N18       30.01F HAZE
EKALAKA          N/A     70  58  65 NW13      29.97R
FORSYTH          N/A     64  48  55 N10       30.04R
LAUREL           N/A     60  47  62 N7        30.10R
ROUNDUP          N/A     62  47  58 N3        30.03S
$$

REGIONAL REPORTS...DAKOTAS

CITY           SKY/WX    TMP DP  RH WIND       PRES   REMARKS
WILLISTON      CLOUDY    74  52  46 N18       29.95S HAZE
MINOT          MOSUNNY   73  62  68 NW13G23   29.86R HAZE
DICKINSON      PTSUNNY   71  60  68 N16G28    29.90R
BEACH          CLOUDY    66  63  88 N9        30.00R
CROSBY         FAIR      66  61  82 NW14      29.96R HAZE
BISMARCK       PTSUNNY   73  64  73 N6        29.83R
GRAND FORKS    TSTM      67  66  97 NE15      29.71F
FARGO          CLOUDY    83  69  62 W12       29.76R
BUFFALO SD       N/A     78  59  51 N14       29.85R
RAPID CITY     CLOUDY    79  63  57 NE16      29.88R
$$

REGIONAL REPORTS...WYOMING/IDAHO/WASHINGTON

CITY           SKY/WX    TMP DP  RH WIND       PRES   REMARKS
GILLETTE       CLOUDY    64  58  80 NW14      30.03R
SHERIDAN       CLOUDY    61  54  77 NW18      30.08R
BUFFALO WY     CLOUDY    59  53  80 NW22G30   30.11R
CODY           CLOUDY    61  50  67 N17       30.11R
YELLOWSTONE LA   N/A     60  47  61 VRB5      30.25R
IDAHO FALLS    CLOUDY    72  54  53 S20G26    30.04R
SALMON         MOSUNNY   82  46  28 CALM      29.87F
BOISE          CLOUDY    82  51  34 NW5       29.92R
SPOKANE        MOSUNNY   81  48  31 NE15G21   29.90R
$$

REGIONAL REPORTS...ALBERTA

CITY           SKY/WX    TMP DP  RH WIND       PRES   REMARKS
EDMONTON       CLOUDY    59  41  51 N12G21    30.18R
CALGARY        MOSUNNY   59  45  58 N17G23    30.21F
LETHBRIDGE     CLOUDY    57  50  77 W7        30.19S
MEDICINE HAT   CLOUDY    63  48  59 NW10      30.13S
WATERTON GATE    N/A     52  45  76 E2          N/A
CARDSTON         N/A     52  48  87 W2          N/A
MILK RIVER       N/A     54  50  87 NW12        N/A
ONEFOUR          N/A     59  48  67 NW16        N/A
$$

REGIONAL REPORTS...SASKATCHEWAN

CITY           SKY/WX    TMP DP  RH WIND       PRES   REMARKS
SWIFT CURRENT  PTSUNNY   61  48  63 NW16G23   30.07R
REGINA         PTSUNNY   68  50  52 NW23G32   29.98R
SASKATOON      PTSUNNY   63  48  59 NW14G22   30.03S
CYPRESS HILLS    N/A     54  45  71 NW9         N/A
VAL MARIE        N/A     61  52  72 NW15        N/A
ASSINIBOIA       N/A     57  48  72 NW14        N/A
$$


USA.gov is the U.S. government's official web portal to all federal, state and local government web resources and services.